AKDT,Max TemperatureF,Mean TemperatureF,Min TemperatureF,Max Dew PointF,MeanDew PointF,Min DewpointF,Max Humidity, Mean Humidity, Min Humidity, Max Sea Level PressureIn, Mean Sea Level PressureIn, Min Sea Level PressureIn, Max VisibilityMiles, Mean VisibilityMiles, Min VisibilityMiles, Max Wind SpeedMPH, Mean Wind SpeedMPH, Max Gust SpeedMPH,PrecipitationIn, CloudCover, Events, WindDirDegrees
2013-7-1,64,58,53,54,52,48,94,80,64,30.07,30.03,29.98,10,9,2,13,3,,0.10,7,,292
2013-7-2,62,58,53,50,47,45,82,69,52,30.19,30.15,30.07,10,10,10,12,3,,0.00,7,,294
2013-7-3,57,55,53,52,49,46,94,82,72,30.22,30.20,30.17,10,10,2,7,2,,0.08,7,,12
2013-7-4,59,56,53,52,49,46,88,78,63,30.24,30.21,30.18,10,9,5,10,3,,0.03,7,,271
2013-7-5,64,58,53,50,47,45,77,67,55,30.25,30.22,30.19,10,10,10,9,5,,0.00,6,,269
2013-7-6,60,56,53,50,48,46,82,71,59,30.19,30.14,30.09,10,10,10,13,4,,0.00,7,,274
2013-7-7,66,58,51,52,49,46,82,70,56,30.10,30.06,30.01,10,10,5,10,5,,0.00,3,,292
2013-7-8,59,56,51,54,51,45,94,83,67,30.13,30.03,29.97,10,9,2,13,4,18,0.43,8,,237
2013-7-9,55,52,50,48,46,43,88,81,63,30.17,30.13,30.04,10,9,6,6,3,,0.49,8,,123
2013-7-10,60,55,50,48,46,45,87,76,55,30.03,29.94,29.91,10,10,7,10,6,,0.11,7,Rain,266
2013-7-11,55,53,51,50,47,46,88,80,72,29.98,29.92,29.90,10,10,4,8,1,,0.07,8,,119
2013-7-12,53,52,51,52,49,48,94,89,82,30.11,30.03,29.98,10,6,2,5,1,,0.19,8,,111
2013-7-13,53,52,50,50,48,46,88,84,77,30.27,30.18,30.11,10,7,2,12,3,,0.97,8,,273
2013-7-14,64,56,48,52,47,45,93,77,59,30.33,30.29,30.26,10,10,2,10,5,,0.00,3,,306
2013-7-15,68,58,48,52,48,43,93,73,56,30.29,30.23,30.16,10,10,8,8,4,,0.00,2,,291
2013-7-16,73,60,48,54,50,45,87,69,50,30.18,30.10,30.00,10,10,10,7,3,,0.00,0,,307
2013-7-17,78,66,53,55,51,46,88,63,36,30.06,29.99,29.97,10,10,10,9,3,,0.00,1,,292
2013-7-18,62,58,55,54,52,50,88,76,72,30.27,30.21,30.05,10,10,10,9,4,,0.00,5,,254
2013-7-19,62,58,53,54,52,50,94,82,72,30.25,30.21,30.13,10,9,4,8,3,,0.00,8,,261
2013-7-20,60,56,53,54,52,50,88,86,77,30.15,30.09,30.03,10,10,5,6,2,,0.00,8,,339
2013-7-21,57,55,53,54,52,50,94,87,77,30.03,30.00,29.99,10,10,5,7,2,,0.02,8,,92
2013-7-22,62,58,53,54,52,50,94,82,68,30.08,30.06,30.02,10,10,1,6,1,,0.00,7,,332
2013-7-23,59,56,53,55,53,50,94,89,82,30.10,30.08,30.06,10,9,2,7,2,,0.60,8,,337
2013-7-24,62,58,53,55,54,52,94,91,77,30.12,30.10,30.07,10,7,0,6,1,,0.92,8,,298
2013-7-25,60,56,53,54,52,48,94,85,72,30.22,30.18,30.13,10,7,0,10,2,,0.55,7,,328
2013-7-26,60,56,53,54,51,48,94,83,63,30.31,30.27,30.22,10,10,10,9,2,,0.00,8,,306
2013-7-27,60,56,53,54,51,48,88,82,72,30.31,30.27,30.21,10,10,10,6,2,,0.00,8,,306
2013-7-28,71,60,50,55,52,46,94,73,53,30.21,30.15,30.10,10,10,3,8,2,,0.00,2,,292
2013-7-29,75,64,53,57,53,48,94,71,50,30.13,30.10,30.05,10,10,10,7,2,,0.00,2,,310
2013-7-30,78,66,53,57,53,48,82,64,39,30.16,30.13,30.09,10,10,10,8,2,,0.00,0,,292
2013-7-31,78,66,55,57,53,48,82,66,47,30.18,30.12,30.05,10,10,10,8,2,,0.00,0,,312